Miscellaneous Local Product
Issued by NWS North Platte, NE

Home | Current Version | Previous Version | Text Only | Print | Product List | Glossary On
Versions: 1 2 3 4 5 6 7 8 9 10 11 12 13 14 15 16 17 18 19 20 21 22 23 24 25 26 27 28 29 30 31 32 33 34 35 36 37 38 39 40 41 42 43 44 45 46 47 48 49 50
000
AXUS43 KLBF 310010
MISLBF


WESTERN AND NORTH CENTRAL NEBRASKA HOURLY WEATHER ROUNDUP
NATIONAL WEATHER SERVICE NORTH PLATTE NE
700 PM CDT WED JUL 30 2014

***STATIONS NOT REPORTING VARIABLES SUCH AS SKY/WEATHER OR
PRESSURE ARE PROVIDED BY THE NEBRASKA DEPARTMENT OF
ROADS...RAWS...AND APRS NETWORKS...AND ARE NOT UNDER
NATIONAL WEATHER SERVICE QUALITY CONTROL***

...OBSERVATIONS IN AND NEAR THE EASTERN PANHANDLE OF NEBRASKA...

CITY           SKY/WX    TMP DP  RH WIND       PRES   REMARKS
PINE RIDGE     PTSUNNY   73  51  46 CALM      30.16F
CHADRON        PTSUNNY   84  45  25 W5        30.15F
ALLIANCE       CLOUDY    78  51  38 S7        30.20F
SIDNEY         CLOUDY    69  55  60 SW14      30.28F
WHITECLAY        N/A     80  48  32 S3          N/A
RUSHVILLE        N/A     82  37  19 W7          N/A
GORDON           N/A     85  46  25 S8          N/A
LISCO            N/A     79  57  46 S10         N/A
BIG SPRINGS      N/A     76  58  52 CALM        N/A
$$

...OBSERVATIONS IN NORTH CENTRAL NEBRASKA...

CITY           SKY/WX    TMP DP  RH WIND       PRES   REMARKS
VALENTINE      MOSUNNY   83  48  29 SW6       30.11F
THEDFORD       CLOUDY    80  51  36 E3        30.16F
AINSWORTH      PTSUNNY   79  51  37 CALM      30.13F
O`NEILL        MOSUNNY   80  55  42 E3        30.12F
ORD            PTSUNNY   80  53  39 CALM      30.12S
BROKEN BOW     PTSUNNY   78  56  46 SE3       30.15S
BROWNLEE         N/A     86  45  23 W5          N/A
SPRINGVIEW       N/A     83  58  42 CALM        N/A
DUNNING          N/A     83  52  34 CALM        N/A
ROSE             N/A     85  58  39 MISG        N/A
NEWPORT          N/A     81  55  41 S5          N/A
SARGENT          N/A     81  52  36 CALM        N/A
COMSTOCK         N/A     83  57  40 CALM        N/A
CHAMBERS         N/A     84  53  33 N3          N/A
EWING            N/A     78  57  48 CALM        N/A
$$

...OBSERVATIONS IN SOUTHWEST NEBRASKA AND FAR NORTHEAST COLORADO...

CITY           SKY/WX    TMP DP  RH WIND       PRES   REMARKS
WRAY             N/A     70  55  58 W10       30.25S
HOLYOKE        FAIR      73  61  64 W10       30.24F
IMPERIAL       PTSUNNY   76  54  46 W5        30.20F
OGALLALA       CLOUDY    73  59  61 CALM      30.20F
NORTH PLATTE   PTSUNNY   77  55  46 S5        30.16S
MCCOOK         PTSUNNY   78  54  43 W6        30.17F
LEXINGTON      PTSUNNY   78  55  44 CALM      30.15F
PAXTON           N/A     79  56  45 CALM        N/A
SUTHERLAND       N/A     82  51  34 CALM        N/A
BRADY            N/A     79  58  47 CALM        N/A
GOTHENBURG       N/A     81  51  35 E3          N/A
CALLAWAY         N/A     79  63  58 E3          N/A
$$

...SOME WEATHER OBSERVATIONS FROM AROUND THE REGION...

CITY           SKY/WX    TMP DP  RH WIND       PRES   REMARKS
DENVER         LGT RAIN  60  57  89 E12       30.34S FOG
LARAMIE        CLOUDY    57  50  77 SE7       30.40F
CHEYENNE       CLOUDY    60  54  80 SW5       30.36F
SCOTTSBLUFF    PTSUNNY   75  55  49 SW9       30.22F
RAPID CITY     PTSUNNY   83  47  28 N12       30.14F
PIERRE         MOSUNNY   85  53  33 SE10      30.04F
WINNER         FAIR      87  48  25 VRB3      30.08F
SIOUX FALLS    MOSUNNY   77  56  48 NW7       30.10F
OMAHA          PTSUNNY   80  52  37 NE9       30.09F
GRAND ISLAND   PTSUNNY   78  56  46 SE5       30.14S
KANSAS CITY    PTSUNNY   79  56  45 N5        30.08S
WICHITA        CLOUDY    68  65  90 NE10      30.09F
HAYS           MOSUNNY   75  54  46 NE8       30.14F
LIBERAL        CLOUDY    66  59  77 N17       30.19S
GOODLAND       PTSUNNY   71  55  56 NW5       30.24F
$$



USA.gov is the U.S. government's official web portal to all federal, state and local government web resources and services.